When you browse on this site, cookies collect data to enhance your experience and personalize the content and advertising you see.
Visit our Privacy Policy to learn more. By continuing to use the site, you agree to this use of cookies and data.
  • In Latvia
  • List of Countries
  • For 7 days
  • Water Temperature
  • Weather Map
  • Weather Widgets
  • user-avatar
    Login

    Hourly Weather Mohale's Hoek

    Today, 18 January, Saturday

    Time Temperature Precipitation Wind Pressure Humidity
    00:00 +24°C° 0 mm 1 mps 630 mmHg 38%
    01:00 +23°C° 0 mm 1 mps 630 mmHg 41%
    02:00 +23°C° 0 mm 1 mps 630 mmHg 43%
    03:00 +22°C° 0 mm 1 mps 630 mmHg 45%
    04:00 +22°C° 0 mm 1 mps 630 mmHg 47%
    05:00 +21°C° 0 mm 1 mps 629 mmHg 49%
    06:00 +23°C° 0 mm 2 mps 630 mmHg 47%
    07:00 +24°C° 0 mm 2 mps 631 mmHg 45%
    08:00 +26°C° 0 mm 3 mps 631 mmHg 43%
    09:00 +27°C° 0 mm 3 mps 631 mmHg 40%
    10:00 +28°C° 0 mm 4 mps 631 mmHg 38%
    11:00 +29°C° 0 mm 5 mps 632 mmHg 35%
    12:00 +30°C° 0 mm 6 mps 631 mmHg 33%
    13:00 +32°C° 0 mm 6 mps 631 mmHg 32%
    14:00 +32°C° 0 mm 7 mps 631 mmHg 30%
    15:00 +29°C° 0.3 mm 7 mps 630 mmHg 39%
    16:00 +26°C° 0.3 mm 7 mps 630 mmHg 48%
    17:00 +22°C° 0.3 mm 7 mps 629 mmHg 57%
    18:00 +21°C° 0.1 mm 6 mps 629 mmHg 61%
    19:00 +20°C° 0.1 mm 4 mps 629 mmHg 66%
    20:00 +19°C° 0.1 mm 3 mps 629 mmHg 70%
    21:00 +19°C° 0 mm 3 mps 629 mmHg 70%
    22:00 +19°C° 0 mm 2 mps 630 mmHg 70%
    23:00 +19°C° 0 mm 2 mps 630 mmHg 70%

    Tomorrow, 19 January, Sunday

    Time Temperature Precipitation Wind Pressure Humidity
    00:00 +18°C° 0.2 mm 2 mps 629 mmHg 73%
    01:00 +18°C° 0.2 mm 2 mps 629 mmHg 76%
    02:00 +17°C° 0.2 mm 2 mps 628 mmHg 79%
    03:00 +17°C° 0.1 mm 2 mps 628 mmHg 78%
    04:00 +17°C° 0.1 mm 2 mps 628 mmHg 78%
    05:00 +18°C° 0.1 mm 1 mps 628 mmHg 78%
    06:00 +19°C° 0 mm 1 mps 629 mmHg 72%
    07:00 +21°C° 0 mm 1 mps 630 mmHg 66%
    08:00 +22°C° 0 mm 1 mps 630 mmHg 60%
    09:00 +23°C° 0.2 mm 1 mps 631 mmHg 54%
    10:00 +25°C° 0.2 mm 1 mps 631 mmHg 49%
    11:00 +27°C° 0.2 mm 1 mps 632 mmHg 43%
    12:00 +27°C° 0.5 mm 2 mps 631 mmHg 43%
    13:00 +27°C° 0.5 mm 2 mps 631 mmHg 42%
    14:00 +27°C° 0.5 mm 3 mps 630 mmHg 42%
    15:00 +25°C° 2.1 mm 5 mps 630 mmHg 55%
    16:00 +21°C° 2.1 mm 7 mps 629 mmHg 67%
    17:00 +18°C° 2.1 mm 8 mps 629 mmHg 80%
    18:00 +17°C° 3.2 mm 7 mps 629 mmHg 80%
    19:00 +17°C° 3.2 mm 6 mps 630 mmHg 80%
    20:00 +16°C° 3.2 mm 5 mps 630 mmHg 80%
    21:00 +16°C° 1.7 mm 5 mps 630 mmHg 80%
    22:00 +15°C° 1.7 mm 5 mps 631 mmHg 79%
    23:00 +15°C° 1.7 mm 5 mps 631 mmHg 79%

    Day after tomorrow, 20 January, Monday

    Time Temperature Precipitation Wind Pressure Humidity
    00:00 +15°C° 0.2 mm 4 mps 630 mmHg 79%
    01:00 +15°C° 0.2 mm 4 mps 630 mmHg 78%
    02:00 +14°C° 0.2 mm 3 mps 630 mmHg 78%
    03:00 +14°C° 0 mm 3 mps 630 mmHg 78%
    04:00 +16°C° 0 mm 2 mps 630 mmHg 78%
    05:00 +16°C° 0 mm 2 mps 630 mmHg 78%
    06:00 +18°C° 0 mm 1 mps 631 mmHg 73%
    07:00 +19°C° 0 mm 1 mps 631 mmHg 68%
    08:00 +20°C° 0 mm 1 mps 632 mmHg 63%
    09:00 +20°C° 0.4 mm 2 mps 632 mmHg 61%
    10:00 +21°C° 0.4 mm 2 mps 633 mmHg 58%
    11:00 +24°C° 0.4 mm 3 mps 633 mmHg 56%
    12:00 +25°C° 0.4 mm 4 mps 633 mmHg 51%
    13:00 +26°C° 0.4 mm 5 mps 633 mmHg 46%
    14:00 +27°C° 0.4 mm 5 mps 633 mmHg 40%
    15:00 +26°C° 0.1 mm 6 mps 632 mmHg 42%
    16:00 +26°C° 0.1 mm 6 mps 632 mmHg 44%
    17:00 +24°C° 0.1 mm 6 mps 632 mmHg 46%
    18:00 +22°C° 0.6 mm 5 mps 631 mmHg 56%
    19:00 +20°C° 0.6 mm 4 mps 631 mmHg 66%
    20:00 +18°C° 0.6 mm 3 mps 631 mmHg 75%
    21:00 +17°C° 0.7 mm 2 mps 631 mmHg 77%
    22:00 +17°C° 0.7 mm 2 mps 631 mmHg 79%
    23:00 +18°C° 0.7 mm 1 mps 631 mmHg 81%

    21 January, Tuesday

    Time Temperature Precipitation Wind Pressure Humidity
    00:00 +18°C° 0.8 mm 1 mps 631 mmHg 83%
    01:00 +16°C° 0.8 mm 2 mps 631 mmHg 85%
    02:00 +16°C° 0.8 mm 2 mps 631 mmHg 86%
    03:00 +16°C° 0.4 mm 2 mps 631 mmHg 86%
    04:00 +15°C° 0.4 mm 2 mps 631 mmHg 87%
    05:00 +15°C° 0.4 mm 2 mps 631 mmHg 87%
    06:00 +16°C° 0.3 mm 1 mps 631 mmHg 80%
    07:00 +18°C° 0.3 mm 1 mps 632 mmHg 74%
    08:00 +20°C° 0.3 mm 1 mps 633 mmHg 67%
    09:00 +20°C° 0.1 mm 2 mps 633 mmHg 60%
    10:00 +22°C° 0.1 mm 3 mps 633 mmHg 53%
    11:00 +24°C° 0.1 mm 3 mps 633 mmHg 46%
    12:00 +25°C° 0 mm 3 mps 633 mmHg 44%
    13:00 +25°C° 0 mm 4 mps 633 mmHg 42%
    14:00 +26°C° 0 mm 4 mps 632 mmHg 40%
    15:00 +25°C° 0.1 mm 3 mps 632 mmHg 42%
    16:00 +25°C° 0.1 mm 3 mps 632 mmHg 44%
    17:00 +24°C° 0.1 mm 2 mps 631 mmHg 46%
    18:00 +23°C° 0 mm 2 mps 631 mmHg 53%
    19:00 +20°C° 0 mm 2 mps 631 mmHg 59%
    20:00 +19°C° 0 mm 2 mps 631 mmHg 66%
    21:00 +18°C° 0 mm 2 mps 631 mmHg 70%
    22:00 +18°C° 0 mm 2 mps 631 mmHg 73%
    23:00 +17°C° 0 mm 2 mps 631 mmHg 77%

    22 January, Wednesday

    Time Temperature Precipitation Wind Pressure Humidity
    00:00 +16°C° 0 mm 2 mps 631 mmHg 78%
    01:00 +16°C° 0 mm 2 mps 630 mmHg 79%
    02:00 +16°C° 0 mm 2 mps 630 mmHg 81%
    03:00 +16°C° 0 mm 1 mps 630 mmHg 79%
    04:00 +16°C° 0 mm 1 mps 630 mmHg 77%
    05:00 +18°C° 0 mm 1 mps 630 mmHg 76%
    06:00 +18°C° 0 mm 1 mps 631 mmHg 73%
    07:00 +19°C° 0 mm 1 mps 631 mmHg 70%
    08:00 +20°C° 0 mm 1 mps 631 mmHg 67%
    09:00 +20°C° 0.3 mm 2 mps 631 mmHg 63%
    10:00 +21°C° 0.3 mm 2 mps 631 mmHg 60%
    11:00 +22°C° 0.3 mm 3 mps 632 mmHg 57%
    12:00 +24°C° 1.3 mm 3 mps 631 mmHg 56%
    13:00 +24°C° 1.3 mm 2 mps 631 mmHg 55%
    14:00 +25°C° 1.3 mm 2 mps 630 mmHg 54%
    15:00 +24°C° 1.1 mm 2 mps 630 mmHg 56%
    16:00 +24°C° 1.1 mm 3 mps 630 mmHg 58%
    17:00 +22°C° 1.1 mm 3 mps 629 mmHg 61%
    18:00 +21°C° 0.3 mm 3 mps 629 mmHg 65%
    19:00 +20°C° 0.3 mm 3 mps 629 mmHg 69%
    20:00 +19°C° 0.3 mm 2 mps 629 mmHg 74%
    21:00 +18°C° 0.1 mm 2 mps 629 mmHg 76%
    22:00 +18°C° 0.1 mm 2 mps 629 mmHg 78%
    23:00 +17°C° 0.1 mm 2 mps 629 mmHg 80%

    23 January, Thursday

    Time Temperature Precipitation Wind Pressure Humidity
    00:00 +17°C° 1.5 mm 3 mps 629 mmHg 82%
    01:00 +15°C° 1.5 mm 4 mps 629 mmHg 85%
    02:00 +15°C° 1.5 mm 5 mps 629 mmHg 88%
    03:00 +15°C° 1.2 mm 4 mps 629 mmHg 87%
    04:00 +16°C° 1.2 mm 3 mps 629 mmHg 85%
    05:00 +16°C° 1.2 mm 3 mps 628 mmHg 84%
    06:00 +17°C° 0 mm 2 mps 629 mmHg 78%
    07:00 +18°C° 0 mm 2 mps 630 mmHg 71%
    08:00 +20°C° 0 mm 1 mps 630 mmHg 65%
    09:00 +20°C° 0.3 mm 2 mps 631 mmHg 57%
    10:00 +22°C° 0.3 mm 3 mps 631 mmHg 50%
    11:00 +25°C° 0.3 mm 4 mps 632 mmHg 42%
    12:00 +25°C° 0.2 mm 5 mps 631 mmHg 44%
    13:00 +23°C° 0.2 mm 5 mps 631 mmHg 46%
    14:00 +23°C° 0.2 mm 5 mps 630 mmHg 48%
    15:00 +22°C° 0.4 mm 4 mps 630 mmHg 50%
    16:00 +22°C° 0.4 mm 3 mps 630 mmHg 52%
    17:00 +23°C° 0.4 mm 2 mps 630 mmHg 54%
    18:00 +20°C° 0.1 mm 2 mps 630 mmHg 60%
    19:00 +19°C° 0.1 mm 2 mps 630 mmHg 66%
    20:00 +18°C° 0.1 mm 3 mps 630 mmHg 72%
    21:00 +17°C° 0.2 mm 2 mps 630 mmHg 74%
    22:00 +17°C° 0.2 mm 2 mps 631 mmHg 76%
    23:00 +16°C° 0.2 mm 2 mps 631 mmHg 78%
    Show more